Zurück zum Katalog

CZ-6A DEB

AktivPO
NORAD 61150·DEBRIS·🇨🇳 China

Gestartet Aug 6, 2024 von Taiyuan Satellite Launch Center

Loading…

Nächste Überflüge (nächste 24 Stunden)

TLE

AktuellSource: Space-Track

Epoche: Sep 14, 2026, 10:53 UTC

1 61150U 24140QU  26257.45392630  .00007520  00000-0  97636-3 0  9996
2 61150  88.9205 250.2432 0064331 234.9711 124.5466 14.79180208110526

Verfolge CZ-6A DEB in Echtzeit mit AllMySat

Download on the App Store